Terug naar catalogus

SOLRAD 3/INJUN 1

ActiefWetenschapLEO
NORAD 117·PAYLOAD·🇺🇸 United States

Gelanceerd Jun 29, 1961 vanaf Cape Canaveral Space Force Station

Loading…

Volgende Passages (komende 24 uur)

TLE

VersSource: Space-Track

Epoch: Sep 7, 2026, 11:05 UTC

1 00117U 61015B   26250.46247792 -.00000056  00000-0  16205-4 0  9998
2 00117  66.8127 164.5572 0083664 242.5673 116.6879 13.90197880305492

Volg SOLRAD 3/INJUN 1 in realtime met AllMySat

Download on the App Store